Flag for Canada Weather past 2 weeks in Thompson, Manitoba, Canada

Now
55 °F

Partly sunny.


Feels Like: 52 °F
Forecast: 42 / 55 °F
Wind: 14 mph from Northwest

Location: Thompson

Current Time: Aug 29, 2014 at 1:47:38 PM

Latest Report: Aug 29, 2014 at 1:00 PM


Visibility: 15 mi

Pressure: 29.91 "Hg

Humidity: 63%

Dew point: 43 °F

Location of ThompsonLocation

Historic Weather in Thompson — Graph

°F

Thompson temperature yesterday

Maximum temperature yesterday: 70 °F (at 2:00 PM)
Minimum temperature yesterday: 50 °F (at 11:00 PM)
Average temperature yesterday: 61 °F

Past Weeks' High & Low Weather Summary

 TemperatureHumidityPressure
High86 °F (Aug 14, 5:00 PM)100% (Aug 14, 8:00 PM)30.50 "Hg (Aug 14, 8:00 PM)
Low41 °F (Aug 16, 3:00 AM)37% (Aug 17, 5:00 PM)29.60 "Hg (Aug 19, 5:00 PM)
Average58 °F82%29.95 "Hg
* Reported Aug 14 12:00 Noon — Aug 29 12:00 Noon, Thompson, Weather by CustomWeather, © 2014

Note: Actual official high and low records may vary slightly from our data, if they occured in-between our weather recording intervals... More about our weather records

Advertising

Thompson weather history for previous 24 hours

 ConditionsComfort  
Time TempWeatherWind HumidityBarometerVisibility
12:00 PM
Aug 29
57 °FPartly sunny.9 mph55%29.91 "Hg15 mi
11:00 AM55 °FPartly sunny.12 mph67%29.90 "Hg15 mi
10:00 AM52 °FPartly sunny.12 mph82%29.90 "Hg15 mi
9:00 AM52 °FPartly sunny.10 mph88%29.87 "Hg15 mi
8:00 AM50 °FBroken clouds.10 mph94%29.85 "Hg15 mi
7:00 AM46 °FPassing clouds.7 mph100%29.83 "Hg15 mi
6:00 AM46 °FPassing clouds.8 mph100%29.80 "Hg15 mi
5:00 AM48 °FPartly cloudy.6 mph94%29.79 "Hg15 mi
4:00 AM50 °FPartly cloudy.7 mph88%29.78 "Hg15 mi
3:00 AM52 °FPartly cloudy.8 mph88%29.75 "Hg15 mi
2:00 AM52 °FPartly cloudy.7 mph94%29.73 "Hg15 mi
1:00 AM54 °FPartly cloudy.9 mph94%29.72 "Hg15 mi
12:00 AM54 °FPartly cloudy.3 mph100%29.72 "Hg15 mi
11:00 PM
Aug 28
50 °FPartly cloudy.2 mph100%29.70 "Hg10 mi
10:00 PM52 °FPartly cloudy.3 mph100%29.70 "Hg15 mi
9:00 PM57 °FBroken clouds.3 mph94%29.70 "Hg15 mi
8:00 PM63 °FPartly sunny.3 mph83%29.70 "Hg15 mi
7:00 PM63 °FPartly sunny.No wind88%29.69 "Hg15 mi
6:00 PM61 °FSprinkles. Partly sunny.2 mph88%29.69 "Hg15 mi
5:00 PM64 °FSprinkles. Mostly cloudy.6 mph68%29.72 "Hg15 mi
4:00 PM68 °FScattered showers. Mostly cloudy.3 mph73%29.70 "Hg15 mi
3:00 PM68 °FMostly cloudy.3 mph69%29.71 "Hg15 mi
2:00 PM70 °FMostly cloudy.3 mph60%29.72 "Hg15 mi
1:00 PM68 °FCloudy.5 mph69%29.73 "Hg15 mi
Weather by CustomWeather, © 2014

See weather overviewHow to use our weather pages